Tracking 19247 objects as of 24-Sep-2018
HD Live streaming from Space Station
objects crossing your sky now

FENGYUN 1C DEB

Track FENGYUN 1C DEB now!
10-day predictions


NORAD ID: 30947
Int'l Code: 1999-025BAM
Perigee: 711.3 km
Apogee: 859.1 km
Inclination: 98.8 °
Period: 100.4 minutes
Semi major axis: 7156 km
RCS: 0.0148 m2 (small)
Launch date: May 10, 1999
Source: People's Republic of China (PRC)
Launch site: Taiyaun Space Center, China (TSC)

Note: This is SATELLITE DEBRIS
aabbcc
Your satellite tracking list
Your tracking list is empty




NASA's NSSDC Master Catalog

Two Line Element Set (TLE):
1 30947U 99025BAM 18266.88887191 +.00000100 +00000-0 +49433-4 0  9999
2 30947 098.8315 037.5670 0103202 073.1441 288.1030 14.34100177606704
Source of the keplerian elements: AFSPC